Powrót do katalogu

WGS F3

USA 211

AktywnyMilitariaGEO
NORAD 36108·PAYLOAD·🇺🇸 United States

Wystrzelony Dec 6, 2009 z Cape Canaveral Space Force Station

Loading…

TLE

ŚwieżeSource: Space-Track

Epoka: Sep 14, 2026, 21:46 UTC

1 36108U 09068A   26257.90726735  .00000013  00000-0  00000-0 0  9996
2 36108   0.3121  85.1081 0000381  48.5885  64.5048  1.00274551 47496

Śledź WGS F3 w czasie rzeczywistym z AllMySat

Download on the App Store